Time,TemperatureF,DewpointF,PressureIn,WindDirection,WindDirectionDegrees,WindSpeedMPH,WindSpeedGustMPH,Humidity,HourlyPrecipIn,Conditions,Clouds,dailyrainin,SoftwareType,DateUTC
2013-07-05 00:00:00,75.2,72.1,30.15,WSW,250,0.0,4.0,90,0.00,,CLR,0.00,VWS V14.01,2013-07-05 04:00:00,
2013-07-05 00:05:00,75.1,72.0,30.15,West,267,0.0,6.0,90,0.00,,CLR,0.00,VWS V14.01,2013-07-05 04:05:00,
2013-07-05 00:14:00,75.1,72.0,30.15,West,261,4.0,7.0,90,0.00,,CLR,0.00,VWS V14.01,2013-07-05 04:14:00,
2013-07-05 00:19:00,75.1,72.3,30.15,WSW,244,3.0,8.0,91,0.00,,CLR,0.00,VWS V14.01,2013-07-05 04:19:00,
2013-07-05 00:24:00,75.1,72.3,30.15,WSW,252,2.0,11.0,91,0.00,,CLR,0.00,VWS V14.01,2013-07-05 04:24:00,
2013-07-05 00:29:00,75.1,72.0,30.15,SSW,210,2.0,11.0,90,0.00,,CLR,0.00,VWS V14.01,2013-07-05 04:29:00,
2013-07-05 00:39:00,75.1,72.3,30.15,SSW,208,0.0,11.0,91,0.00,,CLR,0.00,VWS V14.01,2013-07-05 04:39:00,
2013-07-05 00:44:00,75.1,72.3,30.15,WSW,245,4.0,11.0,91,0.00,,CLR,0.00,VWS V14.01,2013-07-05 04:44:00,
2013-07-05 00:49:00,75.1,72.3,30.15,SW,236,5.0,11.0,91,0.00,,CLR,0.00,VWS V14.01,2013-07-05 04:49:00,
2013-07-05 00:54:00,75.1,72.3,30.14,WSW,245,4.0,11.0,91,0.00,,CLR,0.00,VWS V14.01,2013-07-05 04:54:00,
2013-07-05 00:59:00,75.1,72.3,30.15,WSW,244,1.0,14.0,91,0.00,,CLR,0.00,VWS V14.01,2013-07-05 04:59:00,
2013-07-05 01:04:00,75.1,72.3,30.15,West,259,3.0,7.0,91,0.00,,CLR,0.00,VWS V14.01,2013-07-05 05:04:00,
2013-07-05 01:09:00,75.1,72.3,30.15,West,271,1.0,7.0,91,0.00,,CLR,0.00,VWS V14.01,2013-07-05 05:09:00,
2013-07-05 01:14:00,75.1,72.3,30.15,SW,219,2.0,13.0,91,0.00,,CLR,0.00,VWS V14.01,2013-07-05 05:14:00,
2013-07-05 01:19:00,75.1,72.3,30.14,SW,232,0.0,13.0,91,0.00,,CLR,0.00,VWS V14.01,2013-07-05 05:19:00,
2013-07-05 01:24:00,75.1,72.3,30.14,WSW,250,1.0,13.0,91,0.00,,CLR,0.00,VWS V14.01,2013-07-05 05:24:00,
2013-07-05 01:29:00,75.1,72.3,30.14,WSW,244,2.0,13.0,91,0.00,,CLR,0.00,VWS V14.01,2013-07-05 05:29:00,
2013-07-05 01:34:00,75.1,72.3,30.14,SW,233,0.0,10.0,91,0.00,,CLR,0.00,VWS V14.01,2013-07-05 05:34:00,
2013-07-05 01:39:00,75.1,72.3,30.14,SW,219,1.0,10.0,91,0.00,,CLR,0.00,VWS V14.01,2013-07-05 05:39:00,
2013-07-05 01:44:00,75.2,72.4,30.14,WSW,246,1.0,10.0,91,0.00,,CLR,0.00,VWS V14.01,2013-07-05 05:44:00,
2013-07-05 01:49:00,75.2,72.4,30.14,West,263,1.0,10.0,91,0.00,,CLR,0.00,VWS V14.01,2013-07-05 05:49:00,
2013-07-05 01:54:00,75.2,72.4,30.14,SW,221,4.0,10.0,91,0.00,,CLR,0.00,VWS V14.01,2013-07-05 05:54:00,
2013-07-05 01:59:00,75.2,72.1,30.14,SW,233,2.0,12.0,90,0.00,,CLR,0.00,VWS V14.01,2013-07-05 05:59:00,
2013-07-05 02:04:00,75.2,72.1,30.14,SW,221,3.0,9.0,90,0.00,,CLR,0.00,VWS V14.01,2013-07-05 06:04:00,
2013-07-05 02:09:00,75.2,72.1,30.14,WSW,248,0.0,9.0,90,0.00,,CLR,0.00,VWS V14.01,2013-07-05 06:09:00,
2013-07-05 02:14:00,75.2,72.1,30.14,SW,229,1.0,9.0,90,0.00,,CLR,0.00,VWS V14.01,2013-07-05 06:14:00,
2013-07-05 02:19:00,75.1,72.3,30.14,West,261,0.0,9.0,91,0.00,,CLR,0.00,VWS V14.01,2013-07-05 06:19:00,
2013-07-05 02:24:00,75.1,72.3,30.14,WSW,250,0.0,9.0,91,0.00,,CLR,0.00,VWS V14.01,2013-07-05 06:24:00,
2013-07-05 02:29:00,75.1,72.3,30.14,West,278,1.0,9.0,91,0.00,,CLR,0.00,VWS V14.01,2013-07-05 06:29:00,
2013-07-05 02:34:00,75.1,72.3,30.14,WSW,250,0.0,5.0,91,0.00,,CLR,0.00,VWS V14.01,2013-07-05 06:34:00,
2013-07-05 02:39:00,75.0,72.2,30.14,WSW,242,0.0,9.0,91,0.00,,CLR,0.00,VWS V14.01,2013-07-05 06:39:00,
2013-07-05 02:44:00,75.0,72.2,30.14,SW,229,2.0,9.0,91,0.00,,CLR,0.00,VWS V14.01,2013-07-05 06:44:00,
2013-07-05 02:49:00,74.9,72.1,30.14,WSW,254,1.0,9.0,91,0.00,,CLR,0.00,VWS V14.01,2013-07-05 06:49:00,
2013-07-05 02:54:00,74.8,72.0,30.14,WSW,244,2.0,9.0,91,0.00,,CLR,0.00,VWS V14.01,2013-07-05 06:54:00,
2013-07-05 02:59:00,74.8,72.0,30.14,SW,226,2.0,9.0,91,0.00,,CLR,0.00,VWS V14.01,2013-07-05 06:59:00,
2013-07-05 03:04:00,74.7,71.9,30.14,WSW,238,2.0,6.0,91,0.00,,CLR,0.00,VWS V14.01,2013-07-05 07:04:00,
2013-07-05 03:09:00,74.7,71.9,30.14,NE,52,1.0,6.0,91,0.00,,CLR,0.00,VWS V14.01,2013-07-05 07:09:00,
2013-07-05 03:14:00,74.6,72.1,30.14,NE,51,0.0,6.0,92,0.00,,CLR,0.00,VWS V14.01,2013-07-05 07:14:00,
2013-07-05 03:19:00,74.6,72.1,30.14,SW,223,2.0,6.0,92,0.00,,CLR,0.00,VWS V14.01,2013-07-05 07:19:00,
2013-07-05 03:24:00,74.5,72.0,30.14,WSW,252,0.0,7.0,92,0.00,,CLR,0.00,VWS V14.01,2013-07-05 07:24:00,
2013-07-05 03:29:00,74.5,72.0,30.14,SW,236,0.0,7.0,92,0.00,,CLR,0.00,VWS V14.01,2013-07-05 07:29:00,
2013-07-05 03:34:00,74.4,71.9,30.14,West,267,0.0,3.0,92,0.00,,CLR,0.00,VWS V14.01,2013-07-05 07:34:00,
2013-07-05 03:39:00,74.4,71.9,30.14,SW,234,5.0,6.0,92,0.00,,CLR,0.00,VWS V14.01,2013-07-05 07:39:00,
2013-07-05 03:44:00,74.3,71.8,30.14,WSW,246,0.0,9.0,92,0.00,,CLR,0.00,VWS V14.01,2013-07-05 07:44:00,
2013-07-05 03:49:00,74.3,71.8,30.14,WNW,288,0.0,9.0,92,0.00,,CLR,0.00,VWS V14.01,2013-07-05 07:49:00,
2013-07-05 03:54:00,74.2,71.7,30.14,WSW,252,3.0,9.0,92,0.00,,CLR,0.00,VWS V14.01,2013-07-05 07:54:00,
2013-07-05 03:59:00,74.2,72.1,30.14,WSW,252,0.0,9.0,93,0.00,,CLR,0.00,VWS V14.01,2013-07-05 07:59:00,
2013-07-05 04:04:00,74.2,72.1,30.14,SW,232,0.0,3.0,93,0.00,,CLR,0.00,VWS V14.01,2013-07-05 08:04:00,
2013-07-05 04:09:00,74.2,72.1,30.14,SW,224,1.0,6.0,93,0.00,,CLR,0.00,VWS V14.01,2013-07-05 08:09:00,
2013-07-05 04:14:00,74.2,72.1,30.14,WSW,254,0.0,6.0,93,0.00,,CLR,0.00,VWS V14.01,2013-07-05 08:14:00,
2013-07-05 04:19:00,74.1,71.9,30.14,SSW,213,0.0,7.0,93,0.00,,CLR,0.00,VWS V14.01,2013-07-05 08:19:00,
2013-07-05 04:24:00,74.1,71.9,30.14,SW,231,0.0,7.0,93,0.00,,CLR,0.00,VWS V14.01,2013-07-05 08:24:00,
2013-07-05 04:29:00,74.1,71.9,30.14,SW,231,0.0,7.0,93,0.00,,CLR,0.00,VWS V14.01,2013-07-05 08:29:00,
2013-07-05 04:39:00,74.0,71.8,30.14,WSW,246,0.0,5.0,93,0.00,,CLR,0.00,VWS V14.01,2013-07-05 08:39:00,
2013-07-05 04:44:00,74.0,71.8,30.14,West,272,0.0,5.0,93,0.00,,CLR,0.00,VWS V14.01,2013-07-05 08:44:00,
2013-07-05 04:49:00,74.0,71.8,30.14,WSW,249,2.0,7.0,93,0.00,,CLR,0.00,VWS V14.01,2013-07-05 08:49:00,
2013-07-05 04:54:00,74.0,71.8,30.15,SW,234,1.0,7.0,93,0.00,,CLR,0.00,VWS V14.01,2013-07-05 08:54:00,
2013-07-05 04:59:00,74.0,71.8,30.14,SW,235,2.0,7.0,93,0.00,,CLR,0.00,VWS V14.01,2013-07-05 08:59:00,
2013-07-05 05:04:00,74.0,72.2,30.14,WSW,254,2.0,7.0,94,0.00,,CLR,0.00,VWS V14.01,2013-07-05 09:04:00,
2013-07-05 05:14:00,74.0,72.2,30.15,SW,225,0.0,7.0,94,0.00,,CLR,0.00,VWS V14.01,2013-07-05 09:14:00,
2013-07-05 05:25:00,73.9,72.1,30.15,West,259,0.0,7.0,94,0.00,,CLR,0.00,VWS V14.01,2013-07-05 09:25:00,
2013-07-05 05:30:00,73.9,72.1,30.15,WSW,247,1.0,2.0,94,0.00,,CLR,0.00,VWS V14.01,2013-07-05 09:30:00,
2013-07-05 05:35:00,73.9,72.1,30.15,WSW,247,1.0,2.0,94,0.00,,CLR,0.00,VWS V14.01,2013-07-05 09:35:00,
2013-07-05 05:40:00,73.9,72.1,30.15,SW,221,0.0,4.0,94,0.00,,CLR,0.00,VWS V14.01,2013-07-05 09:40:00,
2013-07-05 05:45:00,73.9,72.1,30.16,WSW,240,0.0,6.0,94,0.00,,CLR,0.00,VWS V14.01,2013-07-05 09:45:00,
2013-07-05 05:59:00,73.9,72.1,30.16,WSW,249,1.0,6.0,94,0.00,,CLR,0.00,VWS V14.01,2013-07-05 09:59:00,
2013-07-05 06:05:00,73.9,72.1,30.16,West,265,1.0,2.0,94,0.00,,CLR,0.00,VWS V14.01,2013-07-05 10:05:00,
2013-07-05 06:10:00,73.9,72.1,30.15,SW,215,0.0,3.0,94,0.00,,CLR,0.00,VWS V14.01,2013-07-05 10:10:00,
2013-07-05 06:15:00,73.9,72.1,30.16,WSW,247,3.0,3.0,94,0.00,,CLR,0.00,VWS V14.01,2013-07-05 10:15:00,
2013-07-05 06:20:00,73.9,72.1,30.16,WSW,239,1.0,5.0,94,0.00,,,0.00,VWS V14.01,2013-07-05 10:20:00,
2013-07-05 06:25:00,74.0,72.5,30.15,WSW,257,1.0,7.0,95,0.00,,,0.00,VWS V14.01,2013-07-05 10:25:00,
2013-07-05 06:30:00,74.0,72.5,30.16,SSW,206,1.0,3.0,95,0.00,,,0.00,VWS V14.01,2013-07-05 10:30:00,
2013-07-05 06:35:00,74.1,72.6,30.15,WSW,252,0.0,4.0,95,0.00,,,0.00,VWS V14.01,2013-07-05 10:35:00,
2013-07-05 06:40:00,74.2,72.7,30.16,SW,232,5.0,5.0,95,0.00,,,0.00,VWS V14.01,2013-07-05 10:40:00,
2013-07-05 06:45:00,74.3,72.8,30.16,West,270,1.0,6.0,95,0.00,,,0.00,VWS V14.01,2013-07-05 10:45:00,
2013-07-05 06:50:00,74.3,72.8,30.16,WSW,240,4.0,7.0,95,0.00,,,0.00,VWS V14.01,2013-07-05 10:50:00,
2013-07-05 06:55:00,74.5,73.0,30.16,SW,225,0.0,7.0,95,0.00,,,0.00,VWS V14.01,2013-07-05 10:55:00,
2013-07-05 07:00:00,74.6,73.1,30.16,West,260,2.0,2.0,95,0.00,,,0.00,VWS V14.01,2013-07-05 11:00:00,
2013-07-05 07:05:00,74.6,73.1,30.16,SSW,207,2.0,3.0,95,0.00,,,0.00,VWS V14.01,2013-07-05 11:05:00,
2013-07-05 07:15:00,74.9,73.4,30.16,SW,229,5.0,7.0,95,0.00,,,0.00,VWS V14.01,2013-07-05 11:15:00,
2013-07-05 07:20:00,75.1,73.6,30.16,WSW,237,2.0,8.0,95,0.00,,,0.00,VWS V14.01,2013-07-05 11:20:00,
2013-07-05 07:25:00,75.2,73.7,30.16,SW,234,0.0,8.0,95,0.00,,,0.00,VWS V14.01,2013-07-05 11:25:00,
2013-07-05 07:41:00,75.6,73.8,30.16,West,270,0.0,8.0,94,0.00,,,0.00,VWS V14.01,2013-07-05 11:41:00,
2013-07-05 07:46:00,75.8,73.9,30.16,WSW,244,2.0,8.0,94,0.00,,,0.00,VWS V14.01,2013-07-05 11:46:00,
2013-07-05 07:51:00,75.9,74.1,30.16,WSW,244,2.0,8.0,94,0.00,,,0.00,VWS V14.01,2013-07-05 11:51:00,
2013-07-05 07:56:00,76.2,74.0,30.16,WSW,251,0.0,8.0,93,0.00,,,0.00,VWS V14.01,2013-07-05 11:56:00,
2013-07-05 08:01:00,76.4,74.2,30.16,WSW,247,0.0,2.0,93,0.00,,,0.00,VWS V14.01,2013-07-05 12:01:00,
2013-07-05 08:11:00,76.7,74.5,30.16,WSW,244,3.0,7.0,93,0.00,,,0.00,VWS V14.01,2013-07-05 12:11:00,
2013-07-05 08:16:00,76.9,74.4,30.16,SSW,202,0.0,7.0,92,0.00,,,0.00,VWS V14.01,2013-07-05 12:16:00,
2013-07-05 08:21:00,77.1,74.6,30.16,WSW,240,1.0,12.0,92,0.00,,,0.00,VWS V14.01,2013-07-05 12:21:00,
2013-07-05 08:26:00,77.3,74.5,30.16,SW,224,5.0,12.0,91,0.00,,,0.00,VWS V14.01,2013-07-05 12:26:00,
2013-07-05 08:31:00,77.6,74.8,30.16,WSW,242,2.0,10.0,91,0.00,,,0.00,VWS V14.01,2013-07-05 12:31:00,
2013-07-05 08:36:00,77.9,74.7,30.16,WSW,238,2.0,10.0,90,0.00,,,0.00,VWS V14.01,2013-07-05 12:36:00,
2013-07-05 08:41:00,78.1,74.6,30.16,WSW,238,0.0,10.0,89,0.00,,,0.00,VWS V14.01,2013-07-05 12:41:00,
2013-07-05 08:51:00,78.5,74.7,30.16,WSW,239,1.0,10.0,88,0.00,,,0.00,VWS V14.01,2013-07-05 12:51:00,
2013-07-05 08:56:00,79.0,75.2,30.16,SW,236,0.0,10.0,88,0.00,,,0.00,VWS V14.01,2013-07-05 12:56:00,
2013-07-05 09:01:00,79.5,75.6,30.15,WSW,253,0.0,1.0,88,0.00,,,0.00,VWS V14.01,2013-07-05 13:01:00,
2013-07-05 09:06:00,80.2,76.3,30.15,NW,309,2.0,4.0,88,0.00,,,0.00,VWS V14.01,2013-07-05 13:06:00,
2013-07-05 09:11:00,80.7,75.8,30.15,WSW,240,0.0,4.0,85,0.00,,,0.00,VWS V14.01,2013-07-05 13:11:00,
2013-07-05 09:16:00,81.2,75.9,30.15,WSW,240,0.0,4.0,84,0.00,,,0.00,VWS V14.01,2013-07-05 13:16:00,
2013-07-05 09:21:00,81.6,75.6,30.15,WSW,240,2.0,4.0,82,0.00,,,0.00,VWS V14.01,2013-07-05 13:21:00,
2013-07-05 09:29:00,81.8,75.8,30.15,WSW,238,1.0,6.0,82,0.00,,,0.00,VWS V14.01,2013-07-05 13:29:00,
2013-07-05 09:36:00,82.2,75.4,30.15,WSW,238,0.0,1.0,80,0.00,,,0.00,VWS V14.01,2013-07-05 13:36:00,
2013-07-05 09:47:00,82.6,76.2,30.15,ENE,66,1.0,2.0,81,0.00,,,0.00,VWS V14.01,2013-07-05 13:47:00,
2013-07-05 09:52:00,82.8,76.0,30.15,West,259,1.0,6.0,80,0.00,,,0.00,VWS V14.01,2013-07-05 13:52:00,
2013-07-05 09:57:00,82.9,76.1,30.15,WNW,290,0.0,6.0,80,0.00,,,0.00,VWS V14.01,2013-07-05 13:57:00,
2013-07-05 10:02:00,83.1,75.9,30.14,West,267,2.0,2.0,79,0.00,,,0.00,VWS V14.01,2013-07-05 14:02:00,
2013-07-05 10:07:00,83.4,76.6,30.15,SW,224,1.0,2.0,80,0.00,,,0.00,VWS V14.01,2013-07-05 14:07:00,
2013-07-05 10:17:00,83.8,76.6,30.14,SW,231,0.0,6.0,79,0.00,,,0.00,VWS V14.01,2013-07-05 14:17:00,
2013-07-05 10:22:00,84.1,76.5,30.14,SW,231,0.0,6.0,78,0.00,,,0.00,VWS V14.01,2013-07-05 14:22:00,
2013-07-05 10:27:00,84.4,76.8,30.15,WSW,240,0.0,6.0,78,0.00,,,0.00,VWS V14.01,2013-07-05 14:27:00,
2013-07-05 10:32:00,84.6,77.0,30.14,SSW,209,4.0,5.0,78,0.00,,,0.00,VWS V14.01,2013-07-05 14:32:00,
2013-07-05 10:42:00,85.0,77.0,30.15,South,169,0.0,5.0,77,0.00,,,0.00,VWS V14.01,2013-07-05 14:42:00,
2013-07-05 10:47:00,85.0,77.8,30.15,West,271,1.0,6.0,79,0.00,,,0.00,VWS V14.01,2013-07-05 14:47:00,
2013-07-05 10:52:00,85.3,77.3,30.14,SW,232,1.0,6.0,77,0.00,,,0.00,VWS V14.01,2013-07-05 14:52:00,
2013-07-05 10:57:00,85.3,76.9,30.14,SW,215,2.0,7.0,76,0.00,,,0.00,VWS V14.01,2013-07-05 14:57:00,
2013-07-05 11:02:00,85.3,76.9,30.14,SW,225,5.0,10.0,76,0.00,,,0.00,VWS V14.01,2013-07-05 15:02:00,
2013-07-05 11:07:00,85.5,77.5,30.14,West,260,1.0,10.0,77,0.00,,,0.00,VWS V14.01,2013-07-05 15:07:00,
2013-07-05 11:12:00,85.8,77.4,30.14,WSW,241,5.0,10.0,76,0.00,,,0.00,VWS V14.01,2013-07-05 15:12:00,
2013-07-05 11:17:00,86.0,77.6,30.14,SW,233,1.0,10.0,76,0.00,,,0.00,VWS V14.01,2013-07-05 15:17:00,
2013-07-05 11:22:00,86.1,77.2,30.14,WSW,244,2.0,10.0,75,0.00,,,0.00,VWS V14.01,2013-07-05 15:22:00,
2013-07-05 11:27:00,86.4,77.5,30.14,SW,226,2.0,10.0,75,0.00,,,0.00,VWS V14.01,2013-07-05 15:27:00,
2013-07-05 11:32:00,86.6,77.7,30.14,West,266,4.0,7.0,75,0.00,,,0.00,VWS V14.01,2013-07-05 15:32:00,
2013-07-05 11:37:00,86.5,76.8,30.14,SW,230,3.0,9.0,73,0.00,,,0.00,VWS V14.01,2013-07-05 15:37:00,
2013-07-05 11:42:00,86.5,77.2,30.14,West,269,1.0,9.0,74,0.00,,,0.00,VWS V14.01,2013-07-05 15:42:00,
2013-07-05 11:47:00,86.6,77.7,30.14,West,261,2.0,9.0,75,0.00,,,0.00,VWS V14.01,2013-07-05 15:47:00,
2013-07-05 11:52:00,86.8,77.9,30.14,SW,230,9.0,9.0,75,0.00,,,0.00,VWS V14.01,2013-07-05 15:52:00,
2013-07-05 11:57:00,87.0,78.1,30.14,SW,228,3.0,12.0,75,0.00,,,0.00,VWS V14.01,2013-07-05 15:57:00,
2013-07-05 12:02:00,87.3,77.6,30.14,WSW,238,1.0,7.0,73,0.00,,CLR,0.00,VWS V14.01,2013-07-05 16:02:00,
2013-07-05 12:07:00,87.6,77.5,30.13,South,190,0.0,7.0,72,0.00,,CLR,0.00,VWS V14.01,2013-07-05 16:07:00,
2013-07-05 12:12:00,88.0,77.4,30.13,SW,232,2.0,7.0,71,0.00,,CLR,0.00,VWS V14.01,2013-07-05 16:12:00,
2013-07-05 12:17:00,88.0,77.4,30.13,South,178,1.0,7.0,71,0.00,,CLR,0.00,VWS V14.01,2013-07-05 16:17:00,
2013-07-05 12:22:00,88.0,77.0,30.13,WSW,254,1.0,7.0,70,0.00,,CLR,0.00,VWS V14.01,2013-07-05 16:22:00,
2013-07-05 12:27:00,87.5,77.4,30.13,South,173,2.0,7.0,72,0.00,,CLR,0.00,VWS V14.01,2013-07-05 16:27:00,
2013-07-05 12:32:00,87.2,77.5,30.13,SW,221,1.0,3.0,73,0.00,,CLR,0.00,VWS V14.01,2013-07-05 16:32:00,
2013-07-05 12:37:00,87.3,77.2,30.13,WSW,247,1.0,7.0,72,0.00,,CLR,0.00,VWS V14.01,2013-07-05 16:37:00,
2013-07-05 12:42:00,87.5,76.9,30.13,WSW,257,2.0,9.0,71,0.00,,CLR,0.00,VWS V14.01,2013-07-05 16:42:00,
2013-07-05 12:47:00,87.5,76.9,30.12,SW,236,2.0,10.0,71,0.00,,CLR,0.00,VWS V14.01,2013-07-05 16:47:00,
2013-07-05 12:52:00,87.5,76.5,30.12,West,281,4.0,11.0,70,0.00,,CLR,0.00,VWS V14.01,2013-07-05 16:52:00,
2013-07-05 12:57:00,87.5,76.5,30.12,WSW,244,1.0,11.0,70,0.00,,CLR,0.00,VWS V14.01,2013-07-05 16:57:00,
2013-07-05 13:02:00,87.7,77.1,30.12,WSW,252,0.0,6.0,71,0.00,,CLR,0.00,VWS V14.01,2013-07-05 17:02:00,
2013-07-05 13:07:00,87.8,76.8,30.12,WSW,247,1.0,8.0,70,0.00,,CLR,0.00,VWS V14.01,2013-07-05 17:07:00,
2013-07-05 13:12:00,87.8,76.8,30.12,WSW,246,6.0,10.0,70,0.00,,CLR,0.00,VWS V14.01,2013-07-05 17:12:00,
2013-07-05 13:17:00,87.7,76.3,30.12,SW,233,1.0,10.0,69,0.00,,CLR,0.00,VWS V14.01,2013-07-05 17:17:00,
2013-07-05 13:22:00,87.8,76.8,30.12,WSW,252,0.0,10.0,70,0.00,,CLR,0.00,VWS V14.01,2013-07-05 17:22:00,
2013-07-05 13:27:00,88.2,76.8,30.12,SSE,152,2.0,10.0,69,0.00,,CLR,0.00,VWS V14.01,2013-07-05 17:27:00,
2013-07-05 13:32:00,88.3,76.0,30.12,SW,233,3.0,12.0,67,0.00,,CLR,0.00,VWS V14.01,2013-07-05 17:32:00,
2013-07-05 13:37:00,88.4,76.9,30.12,WSW,240,3.0,12.0,69,0.00,,CLR,0.00,VWS V14.01,2013-07-05 17:37:00,
2013-07-05 13:42:00,88.5,76.2,30.12,WSW,240,1.0,12.0,67,0.00,,CLR,0.00,VWS V14.01,2013-07-05 17:42:00,
2013-07-05 13:47:00,88.7,77.2,30.12,WSW,258,3.0,12.0,69,0.00,,CLR,0.00,VWS V14.01,2013-07-05 17:47:00,
2013-07-05 13:52:00,88.9,77.0,30.12,SSW,197,1.0,12.0,68,0.00,,CLR,0.00,VWS V14.01,2013-07-05 17:52:00,
2013-07-05 13:57:00,88.6,76.2,30.12,SSE,165,2.0,13.0,67,0.00,,CLR,0.00,VWS V14.01,2013-07-05 17:57:00,
2013-07-05 14:02:00,87.8,75.9,30.12,SSW,202,2.0,5.0,68,0.00,,CLR,0.00,VWS V14.01,2013-07-05 18:02:00,
2013-07-05 14:07:00,87.4,76.0,30.11,WSW,242,3.0,5.0,69,0.00,,CLR,0.00,VWS V14.01,2013-07-05 18:07:00,
2013-07-05 14:12:00,86.8,75.4,30.11,WSW,246,1.0,11.0,69,0.00,,CLR,0.00,VWS V14.01,2013-07-05 18:12:00,
2013-07-05 14:17:00,86.8,75.0,30.11,WSW,242,9.0,11.0,68,0.00,,CLR,0.00,VWS V14.01,2013-07-05 18:17:00,
2013-07-05 14:22:00,86.9,75.5,30.11,West,260,1.0,11.0,69,0.00,,CLR,0.00,VWS V14.01,2013-07-05 18:22:00,
2013-07-05 14:27:00,87.0,75.2,30.11,SW,232,2.0,11.0,68,0.00,,CLR,0.00,VWS V14.01,2013-07-05 18:27:00,
2013-07-05 14:32:00,87.0,76.0,30.11,West,265,3.0,5.0,70,0.00,,CLR,0.00,VWS V14.01,2013-07-05 18:32:00,
2013-07-05 14:37:00,87.1,76.6,30.11,SW,217,1.0,7.0,71,0.00,,CLR,0.00,VWS V14.01,2013-07-05 18:37:00,
2013-07-05 14:42:00,87.1,77.0,30.11,SW,234,1.0,7.0,72,0.00,,CLR,0.00,VWS V14.01,2013-07-05 18:42:00,
2013-07-05 14:47:00,87.1,77.4,30.10,West,269,1.0,7.0,73,0.00,,CLR,0.00,VWS V14.01,2013-07-05 18:47:00,
2013-07-05 14:52:00,87.1,77.0,30.10,SW,232,1.0,7.0,72,0.00,,CLR,0.00,VWS V14.01,2013-07-05 18:52:00,
2013-07-05 14:57:00,86.9,76.8,30.10,SW,231,0.0,7.0,72,0.00,,CLR,0.00,VWS V14.01,2013-07-05 18:57:00,
2013-07-05 15:03:00,86.9,77.2,30.10,WSW,253,1.0,3.0,73,0.00,,CLR,0.00,VWS V14.01,2013-07-05 19:03:00,
2013-07-05 15:08:00,86.8,77.1,30.10,SW,236,0.0,6.0,73,0.00,,CLR,0.00,VWS V14.01,2013-07-05 19:08:00,
2013-07-05 15:13:00,86.7,77.0,30.10,South,180,1.0,6.0,73,0.00,,CLR,0.00,VWS V14.01,2013-07-05 19:13:00,
2013-07-05 15:18:00,86.6,76.9,30.09,South,181,0.0,6.0,73,0.00,,CLR,0.00,VWS V14.01,2013-07-05 19:18:00,
2013-07-05 15:23:00,86.5,76.4,30.09,West,262,6.0,6.0,72,0.00,,CLR,0.00,VWS V14.01,2013-07-05 19:23:00,
2013-07-05 15:28:00,86.3,76.6,30.09,SW,229,1.0,9.0,73,0.00,,CLR,0.00,VWS V14.01,2013-07-05 19:28:00,
2013-07-05 15:33:00,86.1,76.8,30.09,WSW,257,2.0,5.0,74,0.00,,CLR,0.00,VWS V14.01,2013-07-05 19:33:00,
2013-07-05 15:38:00,86.0,76.3,30.09,West,269,0.0,6.0,73,0.00,,CLR,0.00,VWS V14.01,2013-07-05 19:38:00,
2013-07-05 15:43:00,85.9,76.2,30.08,WSW,252,1.0,6.0,73,0.00,,CLR,0.00,VWS V14.01,2013-07-05 19:43:00,
2013-07-05 15:48:00,85.7,76.5,30.09,WSW,252,7.0,8.0,74,0.00,,CLR,0.00,VWS V14.01,2013-07-05 19:48:00,
2013-07-05 15:53:00,85.6,76.0,30.08,West,263,2.0,8.0,73,0.00,,CLR,0.00,VWS V14.01,2013-07-05 19:53:00,
2013-07-05 15:58:00,85.5,76.3,30.08,South,180,1.0,8.0,74,0.00,,CLR,0.00,VWS V14.01,2013-07-05 19:58:00,
2013-07-05 16:03:00,85.4,76.2,30.08,WSW,241,0.0,3.0,74,0.00,,CLR,0.00,VWS V14.01,2013-07-05 20:03:00,
2013-07-05 16:08:00,85.2,76.4,30.08,SW,217,0.0,3.0,75,0.00,,CLR,0.00,VWS V14.01,2013-07-05 20:08:00,
2013-07-05 16:13:00,85.0,76.2,30.08,WSW,242,1.0,5.0,75,0.00,,CLR,0.00,VWS V14.01,2013-07-05 20:13:00,
2013-07-05 16:18:00,84.8,76.0,30.08,South,169,0.0,5.0,75,0.00,,CLR,0.00,VWS V14.01,2013-07-05 20:18:00,
2013-07-05 16:23:00,84.6,76.2,30.08,South,169,0.0,5.0,76,0.00,,CLR,0.00,VWS V14.01,2013-07-05 20:23:00,
2013-07-05 16:28:00,84.3,76.3,30.08,NNW,334,0.0,5.0,77,0.00,,CLR,0.00,VWS V14.01,2013-07-05 20:28:00,
2013-07-05 16:33:00,84.0,76.4,30.08,ENE,67,0.0,2.0,78,0.00,,CLR,0.00,VWS V14.01,2013-07-05 20:33:00,
2013-07-05 16:38:00,83.6,76.4,30.08,East,86,1.0,3.0,79,0.00,,CLR,0.00,VWS V14.01,2013-07-05 20:38:00,
2013-07-05 16:43:00,83.4,76.6,30.08,SW,221,2.0,3.0,80,0.00,,CLR,0.00,VWS V14.01,2013-07-05 20:43:00,
2013-07-05 16:48:00,83.3,76.5,30.07,WNW,288,0.0,3.0,80,0.00,,CLR,0.00,VWS V14.01,2013-07-05 20:48:00,
2013-07-05 16:53:00,83.2,76.4,30.07,WNW,287,0.0,3.0,80,0.00,,CLR,0.00,VWS V14.01,2013-07-05 20:53:00,
2013-07-05 16:58:00,83.1,76.3,30.07,West,274,0.0,3.0,80,0.00,,CLR,0.00,VWS V14.01,2013-07-05 20:58:00,
2013-07-05 17:03:00,83.0,76.2,30.07,WSW,257,0.0,6.0,80,0.00,,CLR,0.00,VWS V14.01,2013-07-05 21:03:00,
2013-07-05 17:08:00,83.0,75.8,30.07,WNW,288,0.0,6.0,79,0.00,,CLR,0.00,VWS V14.01,2013-07-05 21:08:00,
2013-07-05 17:13:00,83.0,75.8,30.07,West,259,0.0,6.0,79,0.00,,CLR,0.00,VWS V14.01,2013-07-05 21:13:00,
2013-07-05 17:18:00,82.9,75.7,30.07,SSW,194,2.0,7.0,79,0.00,,CLR,0.00,VWS V14.01,2013-07-05 21:18:00,
2013-07-05 17:23:00,82.8,76.0,30.07,SW,223,1.0,7.0,80,0.00,,CLR,0.00,VWS V14.01,2013-07-05 21:23:00,
2013-07-05 17:28:00,82.8,76.0,30.07,WSW,242,0.0,7.0,80,0.00,,CLR,0.00,VWS V14.01,2013-07-05 21:28:00,
2013-07-05 17:33:00,82.8,76.0,30.07,WSW,254,0.0,6.0,80,0.00,,CLR,0.00,VWS V14.01,2013-07-05 21:33:00,
2013-07-05 17:38:00,82.7,75.9,30.06,WSW,258,6.0,8.0,80,0.00,,CLR,0.00,VWS V14.01,2013-07-05 21:38:00,
2013-07-05 17:43:00,82.7,75.9,30.06,WNW,285,0.0,8.0,80,0.00,,CLR,0.00,VWS V14.01,2013-07-05 21:43:00,
2013-07-05 17:48:00,82.7,75.9,30.06,SW,225,0.0,8.0,80,0.00,,CLR,0.00,VWS V14.01,2013-07-05 21:48:00,
2013-07-05 17:53:00,82.6,75.8,30.06,West,260,1.0,8.0,80,0.00,,CLR,0.00,VWS V14.01,2013-07-05 21:53:00,
2013-07-05 17:58:00,82.5,75.7,30.06,SW,221,2.0,8.0,80,0.00,,CLR,0.00,VWS V14.01,2013-07-05 21:58:00,
2013-07-05 18:03:00,82.4,75.6,30.06,WSW,246,0.0,7.0,80,0.00,,CLR,0.00,VWS V14.01,2013-07-05 22:03:00,
2013-07-05 18:08:00,82.3,75.9,30.07,West,277,5.0,7.0,81,0.00,,CLR,0.00,VWS V14.01,2013-07-05 22:08:00,
2013-07-05 18:13:00,82.1,75.7,30.06,WSW,252,2.0,7.0,81,0.00,,CLR,0.00,VWS V14.01,2013-07-05 22:13:00,
2013-07-05 18:18:00,81.9,75.5,30.06,WSW,257,0.0,7.0,81,0.00,,CLR,0.00,VWS V14.01,2013-07-05 22:18:00,
2013-07-05 18:23:00,81.7,75.7,30.06,WSW,245,4.0,9.0,82,0.00,,CLR,0.00,VWS V14.01,2013-07-05 22:23:00,
2013-07-05 18:28:00,81.6,75.6,30.07,SW,217,0.0,9.0,82,0.00,,CLR,0.00,VWS V14.01,2013-07-05 22:28:00,
2013-07-05 18:33:00,81.5,75.1,30.06,WSW,242,1.0,10.0,81,0.00,,CLR,0.00,VWS V14.01,2013-07-05 22:33:00,
2013-07-05 18:38:00,81.4,75.0,30.06,WSW,242,0.0,10.0,81,0.00,,CLR,0.00,VWS V14.01,2013-07-05 22:38:00,
2013-07-05 18:43:00,81.3,74.9,30.06,SW,224,1.0,10.0,81,0.00,,CLR,0.00,VWS V14.01,2013-07-05 22:43:00,
2013-07-05 18:48:00,81.2,74.4,30.06,WSW,246,2.0,10.0,80,0.00,,CLR,0.00,VWS V14.01,2013-07-05 22:48:00,
2013-07-05 18:53:00,81.1,74.3,30.06,West,269,0.0,10.0,80,0.00,,CLR,0.00,VWS V14.01,2013-07-05 22:53:00,
2013-07-05 18:58:00,81.0,74.2,30.06,West,267,0.0,10.0,80,0.00,,CLR,0.00,VWS V14.01,2013-07-05 22:58:00,
2013-07-05 19:03:00,80.9,73.8,30.05,WSW,240,0.0,5.0,79,0.00,,CLR,0.00,VWS V14.01,2013-07-05 23:03:00,
2013-07-05 19:08:00,80.8,73.7,30.05,WSW,238,0.0,5.0,79,0.00,,CLR,0.00,VWS V14.01,2013-07-05 23:08:00,
2013-07-05 19:13:00,80.7,74.0,30.06,SW,232,6.0,6.0,80,0.00,,CLR,0.00,VWS V14.01,2013-07-05 23:13:00,
2013-07-05 19:18:00,80.6,73.9,30.05,WSW,239,1.0,6.0,80,0.00,,CLR,0.00,VWS V14.01,2013-07-05 23:18:00,
2013-07-05 19:23:00,80.5,73.8,30.06,SW,232,0.0,6.0,80,0.00,,CLR,0.00,VWS V14.01,2013-07-05 23:23:00,
2013-07-05 19:28:00,80.4,74.0,30.05,WSW,238,2.0,6.0,81,0.00,,CLR,0.00,VWS V14.01,2013-07-05 23:28:00,
2013-07-05 19:33:00,80.2,73.8,30.05,WSW,257,0.0,3.0,81,0.00,,CLR,0.00,VWS V14.01,2013-07-05 23:33:00,
2013-07-05 19:38:00,80.1,74.1,30.05,West,265,5.0,7.0,82,0.00,,CLR,0.00,VWS V14.01,2013-07-05 23:38:00,
2013-07-05 19:43:00,80.0,74.0,30.05,West,261,1.0,7.0,82,0.00,,CLR,0.00,VWS V14.01,2013-07-05 23:43:00,
2013-07-05 19:48:00,80.0,74.4,30.05,West,261,0.0,7.0,83,0.00,,CLR,0.00,VWS V14.01,2013-07-05 23:48:00,
2013-07-05 19:53:00,79.8,74.2,30.05,WSW,254,1.0,7.0,83,0.00,,CLR,0.00,VWS V14.01,2013-07-05 23:53:00,
2013-07-05 19:58:00,79.7,74.1,30.05,West,271,3.0,7.0,83,0.00,,CLR,0.00,VWS V14.01,2013-07-05 23:58:00,
2013-07-05 20:03:00,79.6,74.3,30.05,WSW,243,0.0,6.0,84,0.00,,CLR,0.00,VWS V14.01,2013-07-06 00:03:00,
2013-07-05 20:08:00,79.5,74.2,30.05,WSW,243,0.0,6.0,84,0.00,,CLR,0.00,VWS V14.01,2013-07-06 00:08:00,
2013-07-05 20:13:00,79.5,74.2,30.05,WSW,243,0.0,6.0,84,0.00,,CLR,0.00,VWS V14.01,2013-07-06 00:13:00,
2013-07-05 20:18:00,79.3,74.1,30.05,WSW,244,3.0,6.0,84,0.00,,CLR,0.00,VWS V14.01,2013-07-06 00:18:00,
2013-07-05 20:23:00,79.3,74.4,30.05,West,275,0.0,6.0,85,0.00,,CLR,0.00,VWS V14.01,2013-07-06 00:23:00,
2013-07-05 20:28:00,79.2,74.3,30.05,West,275,0.0,6.0,85,0.00,,CLR,0.00,VWS V14.01,2013-07-06 00:28:00,
2013-07-05 20:33:00,79.1,74.2,30.06,West,275,0.0,0.0,85,0.00,,CLR,0.00,VWS V14.01,2013-07-06 00:33:00,
2013-07-05 20:38:00,79.0,74.1,30.05,West,275,0.0,0.0,85,0.00,,CLR,0.00,VWS V14.01,2013-07-06 00:38:00,
2013-07-05 20:43:00,78.9,74.0,30.06,West,275,0.0,0.0,85,0.00,,CLR,0.00,VWS V14.01,2013-07-06 00:43:00,
2013-07-05 20:48:00,78.8,73.9,30.05,West,275,0.0,1.0,85,0.00,,CLR,0.00,VWS V14.01,2013-07-06 00:48:00,
2013-07-05 20:53:00,78.7,74.2,30.06,West,261,0.0,2.0,86,0.00,,CLR,0.00,VWS V14.01,2013-07-06 00:53:00,
2013-07-05 20:58:00,78.6,74.1,30.06,West,261,0.0,2.0,86,0.00,,CLR,0.00,VWS V14.01,2013-07-06 00:58:00,
2013-07-05 21:03:00,78.5,74.0,30.06,West,261,0.0,0.0,86,0.00,,CLR,0.00,VWS V14.01,2013-07-06 01:03:00,
2013-07-05 21:08:00,78.3,73.8,30.06,West,261,0.0,0.0,86,0.00,,CLR,0.00,VWS V14.01,2013-07-06 01:08:00,
2013-07-05 21:13:00,78.2,73.7,30.06,West,261,0.0,0.0,86,0.00,,CLR,0.00,VWS V14.01,2013-07-06 01:13:00,
2013-07-05 21:18:00,78.1,73.6,30.06,West,261,0.0,0.0,86,0.00,,CLR,0.00,VWS V14.01,2013-07-06 01:18:00,
2013-07-05 21:23:00,77.9,73.4,30.06,West,261,0.0,0.0,86,0.00,,CLR,0.00,VWS V14.01,2013-07-06 01:23:00,
2013-07-05 21:28:00,77.8,73.6,30.07,West,261,0.0,0.0,87,0.00,,CLR,0.00,VWS V14.01,2013-07-06 01:28:00,
2013-07-05 21:33:00,77.7,73.5,30.07,West,261,0.0,0.0,87,0.00,,CLR,0.00,VWS V14.01,2013-07-06 01:33:00,
2013-07-05 21:38:00,77.6,73.4,30.07,West,261,0.0,0.0,87,0.00,,CLR,0.00,VWS V14.01,2013-07-06 01:38:00,
2013-07-05 21:43:00,77.5,73.7,30.07,West,261,0.0,0.0,88,0.00,,CLR,0.00,VWS V14.01,2013-07-06 01:43:00,
2013-07-05 21:48:00,77.3,73.5,30.07,West,261,0.0,0.0,88,0.00,,CLR,0.00,VWS V14.01,2013-07-06 01:48:00,
2013-07-05 21:53:00,77.2,73.4,30.08,West,261,0.0,2.0,88,0.00,,CLR,0.00,VWS V14.01,2013-07-06 01:53:00,
2013-07-05 21:58:00,77.0,73.2,30.07,West,261,0.0,2.0,88,0.00,,CLR,0.00,VWS V14.01,2013-07-06 01:58:00,
2013-07-05 22:03:00,76.9,73.1,30.07,West,261,1.0,3.0,88,0.00,,CLR,0.00,VWS V14.01,2013-07-06 02:03:00,
2013-07-05 22:08:00,76.7,72.9,30.07,WSW,244,0.0,4.0,88,0.00,,CLR,0.00,VWS V14.01,2013-07-06 02:08:00,
2013-07-05 22:13:00,76.6,72.8,30.07,West,261,3.0,5.0,88,0.00,,CLR,0.00,VWS V14.01,2013-07-06 02:13:00,
2013-07-05 22:18:00,76.5,72.7,30.07,West,261,2.0,5.0,88,0.00,,CLR,0.00,VWS V14.01,2013-07-06 02:18:00,
2013-07-05 22:23:00,76.4,72.6,30.07,West,265,0.0,5.0,88,0.00,,CLR,0.00,VWS V14.01,2013-07-06 02:23:00,
2013-07-05 22:28:00,76.3,72.5,30.07,West,262,0.0,5.0,88,0.00,,CLR,0.00,VWS V14.01,2013-07-06 02:28:00,
2013-07-05 22:33:00,76.2,72.4,30.07,WSW,237,0.0,4.0,88,0.00,,CLR,0.00,VWS V14.01,2013-07-06 02:33:00,
2013-07-05 22:38:00,76.2,72.4,30.07,SW,228,0.0,4.0,88,0.00,,CLR,0.00,VWS V14.01,2013-07-06 02:38:00,
2013-07-05 22:43:00,76.1,72.3,30.07,SW,228,0.0,4.0,88,0.00,,CLR,0.00,VWS V14.01,2013-07-06 02:43:00,
2013-07-05 22:48:00,76.1,72.6,30.07,WSW,243,0.0,4.0,89,0.00,,CLR,0.00,VWS V14.01,2013-07-06 02:48:00,
2013-07-05 22:53:00,76.0,72.5,30.07,WSW,245,1.0,4.0,89,0.00,,CLR,0.00,VWS V14.01,2013-07-06 02:53:00,
2013-07-05 22:58:00,75.9,72.4,30.07,West,273,0.0,4.0,89,0.00,,CLR,0.00,VWS V14.01,2013-07-06 02:58:00,
2013-07-05 23:03:00,75.9,72.4,30.07,WSW,247,1.0,7.0,89,0.00,,CLR,0.00,VWS V14.01,2013-07-06 03:03:00,
2013-07-05 23:08:00,75.8,72.3,30.07,SW,233,2.0,7.0,89,0.00,,CLR,0.00,VWS V14.01,2013-07-06 03:08:00,
2013-07-05 23:14:00,75.8,72.3,30.07,SW,235,0.0,7.0,89,0.00,,CLR,0.00,VWS V14.01,2013-07-06 03:14:00,
2013-07-05 23:19:00,75.7,72.2,30.07,WSW,244,0.0,7.0,89,0.00,,CLR,0.00,VWS V14.01,2013-07-06 03:19:00,
2013-07-05 23:24:00,75.7,72.2,30.07,West,269,1.0,7.0,89,0.00,,CLR,0.00,VWS V14.01,2013-07-06 03:24:00,
2013-07-05 23:29:00,75.7,72.2,30.07,WSW,249,2.0,7.0,89,0.00,,CLR,0.00,VWS V14.01,2013-07-06 03:29:00,
2013-07-05 23:34:00,75.6,72.5,30.07,WSW,254,0.0,6.0,90,0.00,,CLR,0.00,VWS V14.01,2013-07-06 03:34:00,
2013-07-05 23:39:00,75.5,72.4,30.07,WSW,257,0.0,6.0,90,0.00,,CLR,0.00,VWS V14.01,2013-07-06 03:39:00,
2013-07-05 23:44:00,75.5,72.4,30.07,SW,233,1.0,6.0,90,0.00,,CLR,0.00,VWS V14.01,2013-07-06 03:44:00,
2013-07-05 23:49:00,75.4,72.3,30.07,East,84,0.0,6.0,90,0.00,,CLR,0.00,VWS V14.01,2013-07-06 03:49:00,
2013-07-05 23:54:00,75.4,72.3,30.07,SW,232,2.0,6.0,90,0.00,,CLR,0.00,VWS V14.01,2013-07-06 03:54:00,
2013-07-05 23:59:00,75.4,72.3,30.07,SW,232,0.0,6.0,90,0.00,,CLR,0.00,VWS V14.01,2013-07-06 03:59:00,